SCP
0 -0 -0 0 0 0 -0 0 -0 0 -0 -0 -0 -0 -0 -0 -0 -0 -0 -0 -0 -0
1 -0 0 0 0 0 -0 0 0 0 0 -0 -0 -0 -0 -0 -0 -0 -0 0 -0 -0
0 0 1 -0 1 0 0 -0 1 0 0 0 0 -0 -0 -0 -0 -0 -0 0 0 0
1 0 0 1 -0 0 -0 1 1 1 1 0 0 0 0 -0 0 -1 -0 -0 0 0
1 1 0 0 0 1 1 1 1 1 1 1 0 0 0 -0 0 -0 -0 -0 0 0
1 1 0 0 0 1 0 1 1 1 1 1 0 0 0 0 -0 0 -0 -0 -0 0
1 1 1 1 0 1 1 1 1 1 1 1 0 0 0 0 0 0 0 0 0 0
1 1 1 1 1 1 1 1 1 1 1 1 0 0 0 0 0 0 0 0 0 0
1 1 1 1 1 1 1 1 1 1 1 1 1 0 0 0 0 0 0 0 -0 -0
1 1 1 1 1 1 1 1 1 1 1 1 1 0 0 0 0 0 0 0 0 0
1 1 1 1 1 1 2 1 1 1 1 1 1 1 0 0 0 0 0 0 0 0
0 1 1 1 1 2 2 2 1 1 1 1 1 1 0 0 0 0 0 0 0 0
1 1 1 1 1 2 2 2 2 2 1 1 1 1 0 0 0 0 0 0 0 0
1 1 1 2 2 2 1 2 2 2 2 1 1 1 0 0 0 0 0 0 0 0
Wind_Speed_500mb
68 65 57 37 48 35 31 37 36 33 27 18 18 17 17 18 23 22 25 28 27 18
81 70 68 56 46 49 43 30 33 29 23 26 20 18 17 13 17 25 22 19 32 29
89 83 73 67 55 50 47 43 25 35 37 29 33 28 28 18 18 22 19 18 17 18
91 88 84 71 69 62 57 48 54 34 41 39 34 40 39 32 32 35 23 25 23 28
87 88 89 88 78 76 67 65 55 57 42 41 42 39 43 39 39 32 31 23 35 26
87 86 87 88 90 80 79 72 67 63 59 60 53 43 42 40 37 44 38 33 32 34
92 92 91 84 82 91 80 80 76 70 65 58 53 47 45 47 44 40 47 43 41 43
95 93 85 87 85 82 93 90 81 73 68 63 57 55 52 50 51 46 45 46 48 50
85 86 90 88 86 83 83 85 85 80 73 70 67 59 50 48 47 52 52 49 48 52
84 91 92 89 88 88 87 85 87 83 79 77 73 66 55 53 54 52 54 57 54 51
87 90 93 93 90 90 90 90 87 87 83 81 79 72 66 63 62 61 60 58 56 56
94 91 93 95 94 94 92 90 91 87 86 86 83 77 71 67 72 71 70 67 67 67
85 90 92 95 93 93 93 95 91 89 87 86 83 80 76 72 68 76 76 74 72 70
84 89 89 89 88 90 92 88 88 85 85 87 86 84 80 77 76 77 75 73 71 68
Wind_Direction_500mb
205 196 200 201 206 201 209 217 226 212 226 237 213 209 223 220 211 210 216 212 200 214
212 209 201 202 199 213 206 215 229 215 231 246 236 231 225 221 217 215 222 211 212 217
214 218 212 203 207 205 209 205 217 230 244 240 215 225 239 224 244 227 234 219 228 223
221 220 218 214 209 212 202 210 219 213 225 237 231 217 229 224 222 235 234 217 231 247
216 223 222 217 217 215 214 211 216 222 222 228 231 228 225 232 217 236 235 222 219 232
212 217 225 224 217 220 220 223 219 225 227 231 237 233 231 233 230 216 238 238 237 242
214 214 221 225 223 216 222 226 228 229 235 237 237 235 231 233 238 237 227 234 241 243
212 213 215 217 226 224 225 229 233 235 234 239 238 239 237 232 235 243 243 234 237 243
213 214 213 217 215 224 226 227 231 235 235 236 240 240 235 242 238 239 246 248 240 240
213 215 216 215 218 216 225 228 230 233 235 236 239 241 235 236 243 245 246 247 253 253
211 218 218 217 216 221 220 228 231 233 235 237 240 242 240 235 238 245 250 251 253 255
214 216 220 220 219 219 220 225 232 236 237 238 240 243 244 240 237 241 247 250 250 253
220 213 220 226 225 221 223 230 233 235 238 240 243 245 247 247 242 243 247 253 257 259
219 220 217 222 224 224 223 225 229 233 237 241 244 247 248 247 244 245 249 253 259 263
Wind_Speed_850mb
68 65 57 37 48 35 31 37 36 33 27 18 18 17 17 18 23 22 25 28 27 18
81 70 68 56 46 49 43 30 33 29 23 26 20 18 17 13 17 25 22 19 32 29
89 83 73 67 55 50 47 43 25 35 37 29 33 28 28 18 18 22 19 18 17 18
91 88 84 71 69 62 57 48 54 34 41 39 34 40 39 32 32 35 23 25 23 28
87 88 89 88 78 76 67 65 55 57 42 41 42 39 43 39 39 32 31 23 35 26
87 86 87 88 90 80 79 72 67 63 59 60 53 43 42 40 37 44 38 33 32 34
92 92 91 84 82 91 80 80 76 70 65 58 53 47 45 47 44 40 47 43 41 43
95 93 85 87 85 82 93 90 81 73 68 63 57 55 52 50 51 46 45 46 48 50
85 86 90 88 86 83 83 85 85 80 73 70 67 59 50 48 47 52 52 49 48 52
84 91 92 89 88 88 87 85 87 83 79 77 73 66 55 53 54 52 54 57 54 51
87 90 93 93 90 90 90 90 87 87 83 81 79 72 66 63 62 61 60 58 56 56
94 91 93 95 94 94 92 90 91 87 86 86 83 77 71 67 72 71 70 67 67 67
85 90 92 95 93 93 93 95 91 89 87 86 83 80 76 72 68 76 76 74 72 70
84 89 89 89 88 90 92 88 88 85 85 87 86 84 80 77 76 77 75 73 71 68
Wind_Direction_850mb
205 196 200 201 206 201 209 217 226 212 226 237 213 209 223 220 211 210 216 212 200 214
212 209 201 202 199 213 206 215 229 215 231 246 236 231 225 221 217 215 222 211 212 217
214 218 212 203 207 205 209 205 217 230 244 240 215 225 239 224 244 227 234 219 228 223
221 220 218 214 209 212 202 210 219 213 225 237 231 217 229 224 222 235 234 217 231 247
216 223 222 217 217 215 214 211 216 222 222 228 231 228 225 232 217 236 235 222 219 232
212 217 225 224 217 220 220 223 219 225 227 231 237 233 231 233 230 216 238 238 237 242
214 214 221 225 223 216 222 226 228 229 235 237 237 235 231 233 238 237 227 234 241 243
212 213 215 217 226 224 225 229 233 235 234 239 238 239 237 232 235 243 243 234 237 243
213 214 213 217 215 224 226 227 231 235 235 236 240 240 235 242 238 239 246 248 240 240
213 215 216 215 218 216 225 228 230 233 235 236 239 241 235 236 243 245 246 247 253 253
211 218 218 217 216 221 220 228 231 233 235 237 240 242 240 235 238 245 250 251 253 255
214 216 220 220 219 219 220 225 232 236 237 238 240 243 244 240 237 241 247 250 250 253
220 213 220 226 225 221 223 230 233 235 238 240 243 245 247 247 242 243 247 253 257 259
219 220 217 222 224 224 223 225 229 233 237 241 244 247 248 247 244 245 249 253 259 263